Regional Weather Roundup
Issued by NWS Northern Indiana

Home | Current Version | Previous Version | Text Only | Print | Product List | Glossary Off
Versions: 1 2 3 4 5 6 7 8 9 10 11 12 13 14 15 16 17 18 19 20 21 22 23 24 25 26 27 28 29 30 31 32 33 34 35 36 37 38 39 40 41 42 43 44 45 46 47 48 49 50

000
ASUS43 KIWX 291610
RWRIWX

KIWX WEATHER ROUNDUP
NATIONAL WEATHER SERVICE NORTHERN INDIANA
1200 PM EDT MON AUG 29 2016

NOTE: "FAIR" INDICATES FEW OR NO CLOUDS BELOW 12,000 FEET WITH NO
SIGNIFICANT WEATHER AND/OR OBSTRUCTIONS TO VISIBILITY.

* THESE STATIONS ARE NOT UNDER NWS QUALITY CONTROL. THEY ALSO MAY NOT
  REPORT WEATHER SUCH AS PRECIPITATION OR FOG.

INZ001>027-291700-
NORTHERN INDIANA

CITY           SKY/WX    TMP DP  RH WIND       PRES   REMARKS
GARY*          MOSUNNY   84  70  61 NE7       30.25S
VALPARAISO     PTSUNNY   82  71  69 E8        30.27R
MICHIGAN CITY* SUNNY     81  73  78 MISG      30.26F
LAPORTE*       PTSUNNY   81  79  95 SE5       30.28S
KNOX*          SUNNY     81  50  34 SE6       30.26S
SOUTH BEND     MOSUNNY   81  72  74 E10       30.27S
ELKHART*       MOSUNNY  N/A N/A N/A SE6       30.27S
GOSHEN         SUNNY     81  71  71 SE5       30.28R
MONTICELLO*    SUNNY     81  68  64 E6        30.25S
LOGANSPORT*    SUNNY     81  70  69 E7        30.27S
ROCHESTER*     SUNNY     82  72  69 SE6       30.27S
WARSAW*        SUNNY     79  73  83 SE5       30.28R
ANGOLA*        MOSUNNY   79  73  83 SE7       30.28S
FORT WAYNE     CLOUDY    77  71  82 E7        30.28S
HUNTINGTON*    PTSUNNY   78  74  87 E6        30.27R
PERU/GRISSOM   SUNNY     81  72  75 SE9       30.25S
MARION*        MOSUNNY   80  72  75 E7        30.27S HAZE

$$
INZ028>050-291700-
CENTRAL INDIANA

CITY           SKY/WX    TMP DP  RH WIND       PRES   REMARKS
LAFAYETTE      SUNNY     81  73  76 S5        30.24F
KOKOMO*        SUNNY     81  72  74 SE8       30.26S
MUNCIE*        SUNNY     83  73  72 E8        30.26S
INDIANAPOLIS   MOSUNNY   83  68  60 CALM      30.24F

$$
MIZ043>046-050>051-056>058-064>065-071>073-077>080-291700-
SOUTHWEST LOWER MICHIGAN

CITY           SKY/WX    TMP DP  RH WIND       PRES   REMARKS
BATTLE CREEK   SUNNY     76  68  76 E5        30.29S
BENTON HARBOR  SUNNY     83  71  67 SE5       30.26R
COLDWATER*     MOSUNNY   79  69  70 E5        30.29R
HILLSDALE*     PTSUNNY   78  68  72 E7        30.30R
HOLLAND        SUNNY     80  69  69 SE7       30.28R
GRAND RAPIDS   MOSUNNY   77  66  68 E10       30.29S
KALAMAZOO      MOSUNNY   80  67  64 SE5       30.28S
STURGIS*       MOSUNNY   80  70  71 SE5       30.28S
THREE RIVERS*  FAIR      80  72  75 E5        30.28S

$$
OHZ001>008-015>018-024>025-291700-
NORTHWEST OHIO

CITY           SKY/WX    TMP DP  RH WIND       PRES   REMARKS
WAUSEON*       PTSUNNY   81  72  74 VRB3G13   30.28S
DEFIANCE       MOSUNNY   80  71  74 E9        30.27S
FINDLAY        MOSUNNY   82  69  64 E6        30.26S
TOLEDO EXPRESS PTSUNNY   79  71  76 E9        30.27S
TOLEDO METCALF PTSUNNY   79  71  76 E9        30.28S
LIMA           PTSUNNY   80  73  79 E8        30.27S

$$
AND FOR LAKE MICHIGAN COASTAL AND OPEN LAKE BUOY OBSERVATIONS

STATION/POSITION TEMP    WIND        PRES    VSBY  WAVE
                 AIR SEA DIR/SP/G                  HT/PER
                 (F)     (DEG/KT/KT) (MB)    (MI)  (FT/S)
CALUMET HARBOR    75      80/  5/  8 1023.8R
MICHIGAN CITY     77     100/  8/ 10   N/A
BURNS HARBOR      80     120/  5/ 13 1024.7R
SAINT JOSEPH      83     260/  1/  4 1025.1F
SOUTH LAKE BUOY   74 75  120/  6/  8 1024.2R         0
4 MI NW BRIDGMAN  77 75  130/  6/  8 1024.1R         1
MICHIGAN CITY     78 75  160/  8/ 10   N/A           1/ 3

$$
&&




USA.gov is the U.S. government's official web portal to all federal, state and local government web resources and services.